TimePDT,TemperatureF,Dew PointF,Humidity,Sea Level PressureIn,VisibilityMPH,Wind Direction,Wind SpeedMPH,Gust SpeedMPH,PrecipitationIn,Events,Conditions,WindDirDegrees,DateUTC
12:53 AM,45.0,41.0,86,29.96,10.0,NNE,4.6,-,N/A,,Overcast,20,2014-04-17 07:53:00
1:53 AM,46.0,41.0,83,29.94,10.0,NNE,3.5,-,N/A,,Overcast,30,2014-04-17 08:53:00
2:53 AM,46.0,41.0,83,29.92,10.0,NE,4.6,-,N/A,,Overcast,40,2014-04-17 09:53:00
3:53 AM,45.0,42.1,90,29.91,8.0,NNE,3.5,-,0.01,Rain,Light Rain,20,2014-04-17 10:53:00
4:53 AM,44.1,42.1,93,29.90,8.0,NNE,3.5,-,0.00,Rain,Light Rain,20,2014-04-17 11:53:00
5:53 AM,45.0,42.1,90,29.89,8.0,NE,3.5,-,0.03,Rain,Light Rain,40,2014-04-17 12:53:00
6:53 AM,45.0,43.0,93,29.88,5.0,ENE,3.5,-,0.04,Rain,Light Rain,70,2014-04-17 13:53:00
7:30 AM,46.0,43.0,89,29.86,6.0,Calm,Calm,-,0.01,Rain,Light Rain,0,2014-04-17 14:30:00
7:53 AM,46.0,43.0,89,29.87,5.0,Calm,Calm,-,0.02,Rain,Light Rain,0,2014-04-17 14:53:00
8:53 AM,48.2,42.8,82,29.85,8.0,SSW,8.1,-,N/A,Rain,Light Rain,200,2014-04-17 15:53:00
9:53 AM,48.2,44.6,87,29.85,7.0,SW,6.9,-,N/A,Rain,Light Rain,220,2014-04-17 16:53:00
10:53 AM,48.9,45.0,86,29.85,6.0,WSW,5.8,-,0.03,Rain,Light Rain,240,2014-04-17 17:53:00
11:01 AM,50.0,45.0,83,29.84,7.0,SW,11.5,-,0.01,Rain,Light Rain,220,2014-04-17 18:01:00
11:53 AM,50.0,46.0,86,29.84,8.0,SSW,8.1,-,0.03,Rain,Light Rain,210,2014-04-17 18:53:00
12:20 PM,50.0,45.0,83,29.83,6.0,WSW,8.1,-,0.01,Rain,Light Rain,250,2014-04-17 19:20:00
12:53 PM,51.1,45.0,80,29.83,6.0,WSW,8.1,-,0.02,Rain,Light Rain,250,2014-04-17 19:53:00
1:53 PM,51.1,46.0,83,29.82,10.0,SSW,5.8,-,0.02,Rain,Light Rain,200,2014-04-17 20:53:00
2:53 PM,52.0,46.0,80,29.80,9.0,SSW,5.8,-,0.01,Rain,Light Rain,210,2014-04-17 21:53:00
3:24 PM,52.0,46.0,80,29.79,8.0,SSW,6.9,-,0.01,Rain,Light Rain,200,2014-04-17 22:24:00
3:53 PM,52.0,46.0,80,29.78,10.0,SSW,5.8,-,0.02,Rain,Light Rain,210,2014-04-17 22:53:00
4:53 PM,51.1,46.0,83,29.78,9.0,SSW,9.2,-,0.01,Rain,Light Rain,210,2014-04-17 23:53:00
5:53 PM,50.0,46.0,86,29.78,10.0,SSW,6.9,-,0.02,Rain,Light Rain,200,2014-04-18 00:53:00
6:53 PM,50.0,46.0,86,29.76,6.0,SW,4.6,-,0.03,Rain,Light Rain,230,2014-04-18 01:53:00
6:57 PM,50.0,46.9,89,29.76,5.0,SW,5.8,-,0.01,Rain,Light Rain,230,2014-04-18 01:57:00
7:04 PM,50.0,46.0,86,29.76,7.0,SW,6.9,-,0.01,Rain,Light Rain,220,2014-04-18 02:04:00
7:53 PM,48.9,46.0,90,29.76,10.0,SW,6.9,-,0.05,Rain,Light Rain,220,2014-04-18 02:53:00
7:57 PM,48.9,46.0,90,29.76,10.0,SW,6.9,-,0.00,Rain,Light Rain,220,2014-04-18 02:57:00
8:27 PM,48.9,46.0,90,29.76,8.0,SW,5.8,-,0.01,Rain,Light Rain,230,2014-04-18 03:27:00
8:53 PM,48.9,46.0,90,29.76,8.0,SW,5.8,-,0.03,Rain,Light Rain,220,2014-04-18 03:53:00
9:23 PM,48.9,44.1,83,29.76,10.0,SW,13.8,-,0.01,Rain,Light Rain,230,2014-04-18 04:23:00
9:29 PM,48.0,44.1,86,29.76,10.0,SW,10.4,-,0.01,,Overcast,220,2014-04-18 04:29:00
9:53 PM,48.0,44.1,86,29.76,10.0,SW,11.5,-,0.01,,Overcast,220,2014-04-18 04:53:00
10:15 PM,48.0,44.1,86,29.75,10.0,SW,10.4,-,N/A,,Overcast,220,2014-04-18 05:15:00
10:53 PM,48.0,44.1,86,29.75,10.0,SSW,9.2,-,N/A,,Overcast,210,2014-04-18 05:53:00
11:53 PM,48.0,43.0,83,29.75,10.0,SW,11.5,-,N/A,,Overcast,220,2014-04-18 06:53:00